Weather History for Scottsbluff, NE

Change the Weather History Date:

Wednesday, June 18, 2014

  Actual Average Record
Temperature  
Mean Temperature 68 °F 68 °F  
Max Temperature 82 °F 83 °F 104 °F (1936)
Min Temperature 53 °F 53 °F 38 °F (1945)
Degree Days  
Heating Degree Days 0 1  
Month to date heating degree days 52 48  
Since 1 June heating degree days 52 48  
Since 1 July heating degree days 6671 6603  
Cooling Degree Days 3 4  
Month to date cooling degree days 37 54  
Year to date cooling degree days 64 77  
Since 1 June cooling degree days 37 54  
Growing Degree Days 18 (Base 50)    
Moisture  
Dew Point 43 °F    
Average Humidity 61    
Maximum Humidity 100    
Minimum Humidity 21    
Precipitation  
Precipitation 0.27 in 0.10 in 1.37 in (1951)
Month to date precipitation 1.03 1.91  
Year to date precipitation 8.18 8.23  
Snow  
Snow 0.00 in 0.00 in 1.00 in (1951)
Month to date snowfall 0.0 0.0  
Since 1 July snowfall 66.5 42.1  
Snow Depth 0.00 in    
Sea Level Pressure  
Sea Level Pressure 29.77 in    
Wind  
Wind Speed 12 mph (NW)    
Max Wind Speed 27 mph    
Max Gust Speed 37 mph    
Visibility 9 miles    
Events Rain    
T = Trace of Precipitation, MM = Missing Value Source: NWS Daily Summary

Daily Weather History Graph

Daily Weather History Graph

Search for Another Location

Airport:

Trip Planner

Search our weather history database for the weather conditions in past years. The results will help you decide how hot, cold, wet, or windy it might be!

Date:

Astronomy

Jun. 18, 2014 Rise Set
Actual Time 5:18 AM MDT 8:32 PM MDT
Civil Twilight 4:44 AM MDT 9:06 PM MDT
Nautical Twilight 4:00 AM MDT 9:50 PM MDT
Astronomical Twilight 3:06 AM MDT 10:44 PM MDT
Moon No Moon Rise 11:50 AM MDT (6/18)
Length of Visible Light 16h 22m
Length of Day
15h 13m
Waning Gibbous, 62% of the Moon is Illuminated
Jun 18
Waning Gibbous
Jun 19
Last Quarter
Jun 27
New
Jul 5
First Quarter
Jul 12
Full

Hourly Weather History & Observations

Time (MDT) Temp. Dew Point Humidity Pressure Visibility Wind Dir Wind Speed Gust Speed Precip Events Conditions
12:53 AM 68.0 °F 55.0 °F 63% 29.55 in 10.0 mi West 11.5 mph 23.0 mph N/A   Clear
1:53 AM 64.0 °F 52.0 °F 65% 29.56 in 10.0 mi West 16.1 mph 23.0 mph N/A   Clear
2:53 AM 60.1 °F 43.0 °F 53% 29.63 in 10.0 mi WNW 21.9 mph 31.1 mph N/A   Clear
3:53 AM 60.1 °F 39.0 °F 46% 29.68 in 10.0 mi WNW 26.5 mph 32.2 mph N/A   Overcast
4:53 AM 55.9 °F 39.0 °F 53% 29.70 in 10.0 mi NW 15.0 mph - N/A   Clear
5:53 AM 53.1 °F 39.9 °F 61% 29.74 in 10.0 mi WNW 9.2 mph - N/A   Clear
6:53 AM 55.9 °F 39.9 °F 55% 29.73 in 10.0 mi WNW 12.7 mph - N/A   Clear
7:53 AM 60.1 °F 39.9 °F 47% 29.74 in 10.0 mi WNW 12.7 mph - N/A   Clear
8:53 AM 64.9 °F 41.0 °F 42% 29.76 in 10.0 mi West 10.4 mph - N/A   Clear
9:53 AM 71.1 °F 39.0 °F 31% 29.76 in 10.0 mi NW 12.7 mph - N/A   Clear
10:53 AM 75.0 °F 41.0 °F 29% 29.77 in 10.0 mi NNW 9.2 mph 19.6 mph N/A   Clear
11:53 AM 75.9 °F 43.0 °F 31% 29.78 in 10.0 mi NNW 15.0 mph - N/A   Clear
12:53 PM 77.0 °F 37.9 °F 24% 29.75 in 10.0 mi NNW 13.8 mph 24.2 mph N/A   Clear
1:53 PM 79.0 °F 37.0 °F 22% 29.74 in 10.0 mi NNW 10.4 mph - N/A   Clear
2:53 PM 79.0 °F 36.0 °F 21% 29.74 in 10.0 mi West 10.4 mph 19.6 mph N/A   Clear
3:53 PM 81.0 °F 37.0 °F 21% 29.73 in 10.0 mi North 5.8 mph - N/A   Clear
4:53 PM 81.0 °F 37.9 °F 21% 29.75 in 10.0 mi NNE 6.9 mph - N/A   Clear
5:53 PM 75.9 °F 39.0 °F 26% 29.78 in 10.0 mi North 13.8 mph 19.6 mph N/A   Partly Cloudy
6:53 PM 68.0 °F 41.0 °F 37% 29.86 in 10.0 mi WNW 21.9 mph 35.7 mph 0.00 in Rain Light Rain
7:53 PM 63.0 °F 45.0 °F 52% 29.91 in 10.0 mi WNW 16.1 mph 27.6 mph 0.00 in   Overcast
8:53 PM 55.9 °F 52.0 °F 87% 29.88 in 10.0 mi WNW 18.4 mph 25.3 mph 0.00 in Rain Light Rain
9:53 PM 57.0 °F 51.1 °F 81% 29.92 in 6.0 mi WSW 9.2 mph - 0.08 in Rain Rain
10:53 PM 57.0 °F 53.1 °F 87% 29.92 in 8.0 mi SSW 5.8 mph - 0.03 in Rain Light Rain
11:53 PM 54.0 °F 53.1 °F 97% 29.94 in 5.0 mi SE 8.1 mph - 0.16 in Rain Rain